Time,TemperatureF,DewpointF,PressureIn,WindDirection,WindDirectionDegrees,WindSpeedMPH,WindSpeedGustMPH,Humidity,HourlyPrecipIn,Conditions,Clouds,dailyrainin,SoftwareType,DateUTC
2013-04-17 00:00:00,58.2,55.0,30.12,WSW,242,7.0,7.0,89,0.00,,,0.00,Wunderground v.1.15,2013-04-17 04:00:00,
2013-04-17 00:04:00,58.2,55.0,30.12,WSW,249,8.0,12.0,89,0.00,,,0.00,Wunderground v.1.15,2013-04-17 04:04:00,
2013-04-17 00:05:00,58.1,54.9,30.12,WSW,242,8.0,12.0,89,0.00,,,0.00,Wunderground v.1.15,2013-04-17 04:05:00,
2013-04-17 00:08:00,58.1,54.9,30.12,WSW,243,8.0,12.0,89,0.00,,,0.00,Wunderground v.1.15,2013-04-17 04:08:00,
2013-04-17 00:09:00,58.1,54.9,30.12,WSW,256,8.0,12.0,89,0.00,,,0.00,Wunderground v.1.15,2013-04-17 04:09:00,
2013-04-17 00:14:00,58.1,54.9,30.12,WSW,257,8.0,10.0,89,0.00,,,0.00,Wunderground v.1.15,2013-04-17 04:14:00,
2013-04-17 00:20:00,58.1,54.9,30.12,WSW,238,8.0,8.0,89,0.00,,,0.00,Wunderground v.1.15,2013-04-17 04:20:00,
2013-04-17 00:26:00,58.1,54.9,30.12,SW,235,8.0,13.0,89,0.00,,,0.00,Wunderground v.1.15,2013-04-17 04:26:00,
2013-04-17 00:32:00,58.0,55.1,30.12,WSW,249,7.0,7.0,90,0.00,,,0.00,Wunderground v.1.15,2013-04-17 04:32:00,
2013-04-17 00:37:00,58.0,55.1,30.12,SW,227,7.0,12.0,90,0.00,,,0.00,Wunderground v.1.15,2013-04-17 04:37:00,
2013-04-17 00:43:00,58.1,55.2,30.13,WSW,258,8.0,11.0,90,0.00,,,0.00,Wunderground v.1.15,2013-04-17 04:43:00,
2013-04-17 00:49:00,58.1,55.2,30.13,WSW,252,8.0,11.0,90,0.00,,,0.00,Wunderground v.1.15,2013-04-17 04:49:00,
2013-04-17 00:55:00,58.2,55.3,30.13,WSW,240,8.0,9.0,90,0.00,,,0.00,Wunderground v.1.15,2013-04-17 04:55:00,
2013-04-17 01:00:00,58.2,55.3,30.14,WSW,245,8.0,8.0,90,0.00,,,0.00,Wunderground v.1.15,2013-04-17 05:00:00,
2013-04-17 01:06:00,58.3,55.4,30.14,WSW,257,8.0,12.0,90,0.00,,,0.00,Wunderground v.1.15,2013-04-17 05:06:00,
2013-04-17 01:11:00,58.3,55.4,30.14,WSW,246,8.0,8.0,90,0.00,,,0.00,Wunderground v.1.15,2013-04-17 05:11:00,
2013-04-17 01:17:00,58.4,55.5,30.15,WNW,303,8.0,10.0,90,0.00,,,0.00,Wunderground v.1.15,2013-04-17 05:17:00,
2013-04-17 01:22:00,58.4,55.5,30.15,WNW,283,7.0,7.0,90,0.00,,,0.00,Wunderground v.1.15,2013-04-17 05:22:00,
2013-04-17 01:28:00,58.4,55.5,30.15,WNW,286,7.0,8.0,90,0.00,,,0.00,Wunderground v.1.15,2013-04-17 05:28:00,
2013-04-17 01:34:00,58.3,55.4,30.14,West,263,6.0,8.0,90,0.00,,,0.00,Wunderground v.1.15,2013-04-17 05:34:00,
2013-04-17 01:40:00,58.3,55.4,30.14,West,261,7.0,7.0,90,0.00,,,0.00,Wunderground v.1.15,2013-04-17 05:40:00,
2013-04-17 01:46:00,58.2,55.3,30.14,West,268,7.0,9.0,90,0.00,,,0.00,Wunderground v.1.15,2013-04-17 05:46:00,
2013-04-17 01:52:00,58.2,55.3,30.13,WSW,238,6.0,7.0,90,0.00,,,0.00,Wunderground v.1.15,2013-04-17 05:52:00,
2013-04-17 01:58:00,58.2,55.3,30.12,WSW,245,7.0,7.0,90,0.00,,,0.00,Wunderground v.1.15,2013-04-17 05:58:00,
2013-04-17 02:04:00,58.2,55.3,30.12,SW,226,6.0,11.0,90,0.00,,,0.00,Wunderground v.1.15,2013-04-17 06:04:00,
2013-04-17 02:10:00,58.3,55.4,30.12,WSW,250,6.0,9.0,90,0.00,,,0.00,Wunderground v.1.15,2013-04-17 06:10:00,
2013-04-17 02:16:00,58.1,55.2,30.12,WSW,242,7.0,9.0,90,0.00,,,0.00,Wunderground v.1.15,2013-04-17 06:16:00,
2013-04-17 02:22:00,58.0,55.4,30.12,West,259,7.0,10.0,91,0.00,,,0.00,Wunderground v.1.15,2013-04-17 06:22:00,
2013-04-17 02:28:00,58.1,55.5,30.12,West,259,8.0,10.0,91,0.00,,,0.00,Wunderground v.1.15,2013-04-17 06:28:00,
2013-04-17 02:33:00,58.0,55.4,30.12,West,263,7.0,7.0,91,0.00,,,0.00,Wunderground v.1.15,2013-04-17 06:33:00,
2013-04-17 02:39:00,57.9,55.3,30.12,West,263,6.0,9.0,91,0.00,,,0.00,Wunderground v.1.15,2013-04-17 06:39:00,
2013-04-17 02:45:00,57.9,55.3,30.12,West,267,7.0,9.0,91,0.00,,,0.00,Wunderground v.1.15,2013-04-17 06:45:00,
2013-04-17 02:50:00,58.0,55.4,30.12,SW,220,7.0,7.0,91,0.00,,,0.00,Wunderground v.1.15,2013-04-17 06:50:00,
2013-04-17 02:56:00,58.0,55.4,30.11,SW,234,6.0,7.0,91,0.00,,,0.00,Wunderground v.1.15,2013-04-17 06:56:00,
2013-04-17 03:02:00,57.9,55.3,30.10,WSW,237,5.0,5.0,91,0.00,,,0.00,Wunderground v.1.15,2013-04-17 07:02:00,
2013-04-17 03:08:00,57.7,55.4,30.11,SW,231,5.0,7.0,92,0.00,,,0.00,Wunderground v.1.15,2013-04-17 07:08:00,
2013-04-17 03:14:00,57.3,55.0,30.10,SW,225,5.0,6.0,92,0.00,,,0.00,Wunderground v.1.15,2013-04-17 07:14:00,
2013-04-17 03:20:00,57.1,54.8,30.10,SW,232,4.0,4.0,92,0.00,,,0.00,Wunderground v.1.15,2013-04-17 07:20:00,
2013-04-17 03:26:00,57.0,55.0,30.10,SW,235,4.0,4.0,93,0.00,,,0.00,Wunderground v.1.15,2013-04-17 07:26:00,
2013-04-17 03:32:00,56.9,54.9,30.09,South,183,3.0,3.0,93,0.00,,,0.00,Wunderground v.1.15,2013-04-17 07:32:00,
2013-04-17 03:38:00,56.8,54.8,30.09,South,183,1.0,3.0,93,0.00,,,0.00,Wunderground v.1.15,2013-04-17 07:38:00,
2013-04-17 03:43:00,56.9,54.9,30.09,WNW,285,0.0,3.0,93,0.00,,,0.00,Wunderground v.1.15,2013-04-17 07:43:00,
2013-04-17 03:49:00,57.5,55.8,30.09,NW,319,2.0,3.0,94,0.00,,,0.00,Wunderground v.1.15,2013-04-17 07:49:00,
2013-04-17 03:54:00,57.9,56.2,30.08,NW,326,2.0,3.0,94,0.00,,,0.00,Wunderground v.1.15,2013-04-17 07:54:00,
2013-04-17 03:59:00,58.2,56.5,30.08,North,11,2.0,3.0,94,0.00,,,0.00,Wunderground v.1.15,2013-04-17 07:59:00,
2013-04-17 04:05:00,58.6,56.9,30.08,North,11,1.0,3.0,94,0.00,,,0.00,Wunderground v.1.15,2013-04-17 08:05:00,
2013-04-17 04:11:00,58.8,57.1,30.08,North,9,2.0,2.0,94,0.00,,,0.00,Wunderground v.1.15,2013-04-17 08:11:00,
2013-04-17 04:16:00,58.6,56.6,30.08,West,273,2.0,3.0,93,0.00,,,0.00,Wunderground v.1.15,2013-04-17 08:16:00,
2013-04-17 04:21:00,58.0,55.7,30.08,SW,229,3.0,3.0,92,0.00,,,0.00,Wunderground v.1.15,2013-04-17 08:21:00,
2013-04-17 04:27:00,57.4,55.1,30.09,WSW,246,4.0,5.0,92,0.00,,,0.00,Wunderground v.1.15,2013-04-17 08:27:00,
2013-04-17 04:32:00,56.9,54.6,30.08,WSW,246,3.0,4.0,92,0.00,,,0.00,Wunderground v.1.15,2013-04-17 08:32:00,
2013-04-17 04:38:00,56.6,54.6,30.09,WSW,246,3.0,4.0,93,0.00,,,0.00,Wunderground v.1.15,2013-04-17 08:38:00,
2013-04-17 04:44:00,56.5,54.5,30.09,WSW,243,3.0,5.0,93,0.00,,,0.00,Wunderground v.1.15,2013-04-17 08:44:00,
2013-04-17 04:49:00,56.4,54.4,30.09,WSW,249,3.0,5.0,93,0.00,,,0.00,Wunderground v.1.15,2013-04-17 08:49:00,
2013-04-17 04:54:00,56.3,54.6,30.10,WSW,254,4.0,6.0,94,0.00,,,0.00,Wunderground v.1.15,2013-04-17 08:54:00,
2013-04-17 05:00:00,56.1,54.4,30.10,West,259,5.0,5.0,94,0.00,,,0.00,Wunderground v.1.15,2013-04-17 09:00:00,
2013-04-17 05:06:00,56.0,54.3,30.10,West,265,5.0,7.0,94,0.00,,,0.00,Wunderground v.1.15,2013-04-17 09:06:00,
2013-04-17 05:12:00,56.0,54.3,30.10,West,261,6.0,6.0,94,0.00,,,0.00,Wunderground v.1.15,2013-04-17 09:12:00,
2013-04-17 05:18:00,55.9,54.2,30.10,WSW,251,6.0,6.0,94,0.00,,,0.00,Wunderground v.1.15,2013-04-17 09:18:00,
2013-04-17 05:24:00,55.9,54.5,30.10,West,259,5.0,6.0,95,0.00,,,0.00,Wunderground v.1.15,2013-04-17 09:24:00,
2013-04-17 05:29:00,55.8,54.4,30.10,West,273,4.0,6.0,95,0.00,,,0.00,Wunderground v.1.15,2013-04-17 09:29:00,
2013-04-17 05:35:00,55.8,54.4,30.10,West,273,4.0,5.0,95,0.00,,,0.00,Wunderground v.1.15,2013-04-17 09:35:00,
2013-04-17 05:41:00,55.7,54.3,30.11,West,273,4.0,4.0,95,0.00,,,0.00,Wunderground v.1.15,2013-04-17 09:41:00,
2013-04-17 05:47:00,55.7,54.3,30.11,West,273,4.0,4.0,95,0.00,,,0.00,Wunderground v.1.15,2013-04-17 09:47:00,
2013-04-17 05:53:00,55.7,54.3,30.11,West,273,4.0,4.0,95,0.00,,,0.00,Wunderground v.1.15,2013-04-17 09:53:00,
2013-04-17 05:59:00,55.7,54.3,30.12,West,273,4.0,5.0,95,0.00,,,0.00,Wunderground v.1.15,2013-04-17 09:59:00,
2013-04-17 06:05:00,55.7,54.3,30.12,West,273,4.0,4.0,95,0.00,,,0.00,Wunderground v.1.15,2013-04-17 10:05:00,
2013-04-17 06:11:00,55.7,54.3,30.13,West,273,4.0,4.0,95,0.00,,,0.00,Wunderground v.1.15,2013-04-17 10:11:00,
2013-04-17 06:16:00,55.8,54.4,30.13,West,273,4.0,4.0,95,0.00,,,0.00,Wunderground v.1.15,2013-04-17 10:16:00,
2013-04-17 06:22:00,55.9,54.5,30.14,West,273,3.0,3.0,95,0.00,,,0.00,Wunderground v.1.15,2013-04-17 10:22:00,
2013-04-17 06:28:00,56.0,54.6,30.14,West,273,3.0,4.0,95,0.00,,,0.00,Wunderground v.1.15,2013-04-17 10:28:00,
2013-04-17 06:34:00,56.2,54.8,30.14,West,273,3.0,3.0,95,0.00,,,0.00,Wunderground v.1.15,2013-04-17 10:34:00,
2013-04-17 06:40:00,56.4,55.0,30.14,West,273,2.0,2.0,95,0.00,,,0.00,Wunderground v.1.15,2013-04-17 10:40:00,
2013-04-17 06:46:00,56.6,55.5,30.15,West,273,2.0,3.0,96,0.00,,,0.00,Wunderground v.1.15,2013-04-17 10:46:00,
2013-04-17 06:52:00,57.3,56.2,30.16,NNW,329,3.0,4.0,96,0.00,,,0.00,Wunderground v.1.15,2013-04-17 10:52:00,
2013-04-17 06:57:00,57.9,56.8,30.16,North,350,3.0,4.0,96,0.00,,,0.00,Wunderground v.1.15,2013-04-17 10:57:00,
2013-04-17 07:03:00,58.2,57.1,30.16,North,355,2.0,3.0,96,0.00,,,0.00,Wunderground v.1.15,2013-04-17 11:03:00,
2013-04-17 07:08:00,58.2,57.1,30.16,NNW,338,2.0,3.0,96,0.00,,,0.00,Wunderground v.1.15,2013-04-17 11:08:00,
2013-04-17 07:14:00,58.3,57.2,30.16,NNW,338,1.0,3.0,96,0.00,,,0.00,Wunderground v.1.15,2013-04-17 11:14:00,
2013-04-17 07:20:00,58.5,57.4,30.16,NNW,341,1.0,2.0,96,0.00,,,0.00,Wunderground v.1.15,2013-04-17 11:20:00,
2013-04-17 07:25:00,58.6,57.5,30.16,NNW,342,2.0,3.0,96,0.00,,,0.00,Wunderground v.1.15,2013-04-17 11:25:00,
2013-04-17 07:31:00,58.8,57.7,30.16,NNW,342,2.0,2.0,96,0.00,,,0.00,Wunderground v.1.15,2013-04-17 11:31:00,
2013-04-17 07:37:00,59.0,57.9,30.16,NNW,344,3.0,4.0,96,0.00,,,0.00,Wunderground v.1.15,2013-04-17 11:37:00,
2013-04-17 07:43:00,59.3,58.2,30.16,North,355,2.0,3.0,96,0.00,,,0.00,Wunderground v.1.15,2013-04-17 11:43:00,
2013-04-17 07:49:00,59.4,58.3,30.16,North,355,1.0,3.0,96,0.00,,,0.00,Wunderground v.1.15,2013-04-17 11:49:00,
2013-04-17 07:54:00,59.5,58.4,30.16,North,355,1.0,2.0,96,0.00,,,0.00,Wunderground v.1.15,2013-04-17 11:54:00,
2013-04-17 07:59:00,59.6,58.2,30.16,NNE,18,1.0,4.0,95,0.00,,,0.00,Wunderground v.1.15,2013-04-17 11:59:00,
2013-04-17 08:04:00,59.5,58.1,30.17,ENE,59,2.0,4.0,95,0.00,,,0.00,Wunderground v.1.15,2013-04-17 12:04:00,
2013-04-17 08:10:00,59.3,57.9,30.17,ENE,67,4.0,4.0,95,0.00,,,0.00,Wunderground v.1.15,2013-04-17 12:10:00,
2013-04-17 08:16:00,59.1,57.7,30.17,ENE,61,6.0,9.0,95,0.00,,,0.00,Wunderground v.1.15,2013-04-17 12:16:00,
2013-04-17 08:22:00,58.7,57.0,30.17,ENE,58,6.0,8.0,94,0.00,,,0.00,Wunderground v.1.15,2013-04-17 12:22:00,
2013-04-17 08:28:00,58.3,56.9,30.18,ENE,74,7.0,11.0,95,0.00,,,0.00,Wunderground v.1.15,2013-04-17 12:28:00,
2013-04-17 08:33:00,57.9,56.2,30.18,ENE,76,8.0,9.0,94,0.00,,,0.00,Wunderground v.1.15,2013-04-17 12:33:00,
2013-04-17 08:39:00,57.6,56.2,30.19,ENE,72,8.0,9.0,95,0.00,,,0.00,Wunderground v.1.15,2013-04-17 12:39:00,
2013-04-17 08:45:00,57.2,55.8,30.19,ENE,76,7.0,11.0,95,0.00,,,0.00,Wunderground v.1.15,2013-04-17 12:45:00,
2013-04-17 08:53:00,57.0,55.6,30.19,ENE,72,7.0,9.0,95,0.00,,,0.00,Wunderground v.1.15,2013-04-17 12:53:00,
2013-04-17 08:58:00,56.8,55.4,30.18,ENE,67,8.0,10.0,95,0.00,,,0.00,Wunderground v.1.15,2013-04-17 12:58:00,
2013-04-17 09:03:00,56.7,55.0,30.18,ENE,70,7.0,8.0,94,0.00,,,0.00,Wunderground v.1.15,2013-04-17 13:03:00,
2013-04-17 09:09:00,56.5,54.8,30.18,East,84,8.0,11.0,94,0.00,,,0.00,Wunderground v.1.15,2013-04-17 13:09:00,
2013-04-17 09:14:00,56.3,54.3,30.18,East,91,9.0,10.0,93,0.00,,,0.00,Wunderground v.1.15,2013-04-17 13:14:00,
2013-04-17 09:20:00,56.3,54.3,30.19,East,84,9.0,10.0,93,0.00,,,0.00,Wunderground v.1.15,2013-04-17 13:20:00,
2013-04-17 09:26:00,56.2,54.2,30.18,ENE,76,9.0,13.0,93,0.00,,,0.00,Wunderground v.1.15,2013-04-17 13:26:00,
2013-04-17 09:31:00,56.2,54.2,30.19,ENE,77,9.0,9.0,93,0.00,,,0.00,Wunderground v.1.15,2013-04-17 13:31:00,
2013-04-17 09:37:00,56.1,54.1,30.19,ENE,73,8.0,10.0,93,0.00,,,0.00,Wunderground v.1.15,2013-04-17 13:37:00,
2013-04-17 09:42:00,56.0,54.0,30.19,ENE,72,8.0,10.0,93,0.00,,,0.00,Wunderground v.1.15,2013-04-17 13:42:00,
2013-04-17 09:48:00,55.9,53.9,30.19,ENE,76,8.0,10.0,93,0.00,,,0.00,Wunderground v.1.15,2013-04-17 13:48:00,
2013-04-17 09:53:00,55.6,53.3,30.19,ENE,68,9.0,12.0,92,0.00,,,0.00,Wunderground v.1.15,2013-04-17 13:53:00,
2013-04-17 09:58:00,55.4,53.1,30.19,ENE,73,10.0,13.0,92,0.00,,,0.00,Wunderground v.1.15,2013-04-17 13:58:00,
2013-04-17 10:04:00,55.3,52.7,30.19,ENE,65,11.0,15.0,91,0.00,,,0.00,Wunderground v.1.15,2013-04-17 14:04:00,
2013-04-17 10:10:00,55.1,52.2,30.19,ENE,76,10.0,11.0,90,0.00,,,0.00,Wunderground v.1.15,2013-04-17 14:10:00,
2013-04-17 10:16:00,55.0,51.8,30.19,ENE,75,10.0,15.0,89,0.00,,,0.00,Wunderground v.1.15,2013-04-17 14:16:00,
2013-04-17 10:22:00,54.9,51.4,30.19,ENE,66,11.0,15.0,88,0.00,,,0.00,Wunderground v.1.15,2013-04-17 14:22:00,
2013-04-17 10:28:00,55.0,51.5,30.19,ENE,68,12.0,15.0,88,0.00,,,0.00,Wunderground v.1.15,2013-04-17 14:28:00,
2013-04-17 10:33:00,55.1,51.3,30.19,ENE,65,13.0,14.0,87,0.00,,,0.00,Wunderground v.1.15,2013-04-17 14:33:00,
2013-04-17 10:39:00,55.1,51.0,30.19,ENE,71,13.0,17.0,86,0.00,,,0.00,Wunderground v.1.15,2013-04-17 14:39:00,
2013-04-17 10:44:00,55.0,50.9,30.20,ENE,75,14.0,15.0,86,0.00,,,0.00,Wunderground v.1.15,2013-04-17 14:44:00,
2013-04-17 10:49:00,55.0,50.9,30.20,ENE,67,13.0,17.0,86,0.00,,,0.00,Wunderground v.1.15,2013-04-17 14:49:00,
2013-04-17 10:55:00,54.9,50.5,30.21,ENE,63,12.0,14.0,85,0.00,,,0.00,Wunderground v.1.15,2013-04-17 14:55:00,
2013-04-17 11:01:00,54.9,50.8,30.21,ENE,76,12.0,13.0,86,0.00,,,0.00,Wunderground v.1.15,2013-04-17 15:01:00,
2013-04-17 11:07:00,54.8,50.4,30.20,ENE,71,12.0,16.0,85,0.00,,,0.00,Wunderground v.1.15,2013-04-17 15:07:00,
2013-04-17 11:12:00,54.8,50.7,30.20,ENE,67,12.0,13.0,86,0.00,,,0.00,Wunderground v.1.15,2013-04-17 15:12:00,
2013-04-17 11:18:00,54.8,50.1,30.20,ENE,75,12.0,16.0,84,0.00,,,0.00,Wunderground v.1.15,2013-04-17 15:18:00,
2013-04-17 11:24:00,54.6,49.9,30.21,ENE,71,14.0,15.0,84,0.00,,,0.00,Wunderground v.1.15,2013-04-17 15:24:00,
2013-04-17 11:30:00,54.8,50.4,30.20,East,80,13.0,14.0,85,0.00,,,0.00,Wunderground v.1.15,2013-04-17 15:30:00,
2013-04-17 11:36:00,54.8,50.4,30.21,NE,51,12.0,15.0,85,0.00,,,0.00,Wunderground v.1.15,2013-04-17 15:36:00,
2013-04-17 11:42:00,55.0,50.6,30.21,NE,52,10.0,11.0,85,0.00,,,0.00,Wunderground v.1.15,2013-04-17 15:42:00,
2013-04-17 11:48:00,55.1,50.4,30.21,ENE,77,10.0,15.0,84,0.00,,,0.00,Wunderground v.1.15,2013-04-17 15:48:00,
2013-04-17 11:53:00,55.0,50.3,30.21,East,80,12.0,15.0,84,0.00,,,0.00,Wunderground v.1.15,2013-04-17 15:53:00,
2013-04-17 11:58:00,55.3,50.5,30.21,NE,48,11.0,15.0,84,0.00,,,0.00,Wunderground v.1.15,2013-04-17 15:58:00,
2013-04-17 12:04:00,55.5,50.7,30.21,NE,56,7.0,10.0,84,0.00,,,0.00,Wunderground v.1.15,2013-04-17 16:04:00,
2013-04-17 12:10:00,55.9,50.5,30.21,NE,51,7.0,7.0,82,0.00,,,0.00,Wunderground v.1.15,2013-04-17 16:10:00,
2013-04-17 12:16:00,56.2,50.8,30.21,ENE,71,9.0,12.0,82,0.00,,,0.00,Wunderground v.1.15,2013-04-17 16:16:00,
2013-04-17 12:21:00,56.5,50.7,30.21,ENE,72,9.0,10.0,81,0.00,,,0.00,Wunderground v.1.15,2013-04-17 16:21:00,
2013-04-17 12:26:00,56.6,50.5,30.21,ENE,74,8.0,10.0,80,0.00,,,0.00,Wunderground v.1.15,2013-04-17 16:26:00,
2013-04-17 12:32:00,56.9,50.8,30.21,NNE,32,6.0,7.0,80,0.00,,,0.00,Wunderground v.1.15,2013-04-17 16:32:00,
2013-04-17 12:38:00,57.3,50.8,30.21,NNE,24,5.0,8.0,79,0.00,,,0.00,Wunderground v.1.15,2013-04-17 16:38:00,
2013-04-17 12:44:00,57.3,50.1,30.20,NE,49,5.0,6.0,77,0.00,,,0.00,Wunderground v.1.15,2013-04-17 16:44:00,
2013-04-17 12:49:00,57.2,50.1,30.20,ENE,65,5.0,8.0,77,0.00,,,0.00,Wunderground v.1.15,2013-04-17 16:49:00,
2013-04-17 12:54:00,57.4,50.2,30.20,ENE,72,4.0,7.0,77,0.00,,,0.00,Wunderground v.1.15,2013-04-17 16:54:00,
2013-04-17 13:00:00,57.8,50.6,30.20,ENE,61,3.0,3.0,77,0.00,,,0.00,Wunderground v.1.15,2013-04-17 17:00:00,
2013-04-17 13:06:00,58.3,51.1,30.20,NNE,19,3.0,4.0,77,0.00,,,0.00,Wunderground v.1.15,2013-04-17 17:06:00,
2013-04-17 13:12:00,58.3,50.8,30.20,NE,50,4.0,5.0,76,0.00,,,0.00,Wunderground v.1.15,2013-04-17 17:12:00,
2013-04-17 13:18:00,58.1,50.6,30.20,ENE,59,4.0,5.0,76,0.00,,,0.00,Wunderground v.1.15,2013-04-17 17:18:00,
2013-04-17 13:23:00,58.3,50.4,30.20,North,5,3.0,3.0,75,0.00,,,0.00,Wunderground v.1.15,2013-04-17 17:23:00,
2013-04-17 13:29:00,58.7,51.2,30.20,NNE,24,2.0,4.0,76,0.00,,,0.00,Wunderground v.1.15,2013-04-17 17:29:00,
2013-04-17 13:34:00,59.0,50.7,30.20,NE,38,3.0,5.0,74,0.00,,,0.00,Wunderground v.1.15,2013-04-17 17:34:00,
2013-04-17 13:40:00,59.3,50.6,30.20,ENE,61,3.0,4.0,73,0.00,,,0.00,Wunderground v.1.15,2013-04-17 17:40:00,
2013-04-17 13:46:00,59.8,51.5,30.20,ENE,67,2.0,4.0,74,0.00,,,0.00,Wunderground v.1.15,2013-04-17 17:46:00,
2013-04-17 13:51:00,60.1,51.8,30.20,ENE,74,2.0,2.0,74,0.00,,,0.00,Wunderground v.1.15,2013-04-17 17:51:00,
2013-04-17 13:57:00,60.7,51.6,30.20,ENE,57,3.0,7.0,72,0.00,,,0.00,Wunderground v.1.15,2013-04-17 17:57:00,
2013-04-17 14:03:00,61.1,51.6,30.20,NNE,28,4.0,9.0,71,0.00,,,0.00,Wunderground v.1.15,2013-04-17 18:03:00,
2013-04-17 14:08:00,61.1,51.6,30.20,NE,40,4.0,9.0,71,0.00,,,0.00,Wunderground v.1.15,2013-04-17 18:08:00,
2013-04-17 14:13:00,61.3,51.8,30.20,ENE,62,4.0,5.0,71,0.00,,,0.00,Wunderground v.1.15,2013-04-17 18:13:00,
2013-04-17 14:19:00,61.6,51.7,30.20,ENE,75,4.0,8.0,70,0.00,,,0.00,Wunderground v.1.15,2013-04-17 18:19:00,
2013-04-17 14:24:00,61.7,52.2,30.19,NNE,19,4.0,4.0,71,0.00,,,0.00,Wunderground v.1.15,2013-04-17 18:24:00,
2013-04-17 14:30:00,62.0,51.7,30.19,NNE,24,3.0,3.0,69,0.00,,,0.00,Wunderground v.1.15,2013-04-17 18:30:00,
2013-04-17 14:37:00,62.4,53.6,30.19,NE,39,3.0,8.0,73,0.00,,,0.00,Wunderground v.1.15,2013-04-17 18:37:00,
2013-04-17 14:43:00,62.9,53.0,30.19,ENE,73,4.0,5.0,70,0.00,,,0.00,Wunderground v.1.15,2013-04-17 18:43:00,
2013-04-17 14:49:00,63.3,53.0,30.19,NE,54,4.0,9.0,69,0.00,,,0.00,Wunderground v.1.15,2013-04-17 18:49:00,
2013-04-17 14:54:00,63.6,53.2,30.19,ENE,69,6.0,9.0,69,0.00,,,0.00,Wunderground v.1.15,2013-04-17 18:54:00,
2013-04-17 14:59:00,64.0,53.2,30.18,ENE,58,5.0,9.0,68,0.00,,,0.00,Wunderground v.1.15,2013-04-17 18:59:00,
2013-04-17 15:05:00,64.0,52.8,30.18,NE,46,5.0,8.0,67,0.00,,,0.00,Wunderground v.1.15,2013-04-17 19:05:00,
2013-04-17 15:11:00,64.5,54.1,30.19,NNE,26,4.0,7.0,69,0.00,,,0.00,Wunderground v.1.15,2013-04-17 19:11:00,
2013-04-17 15:17:00,64.7,53.9,30.18,NNE,32,4.0,7.0,68,0.00,,,0.00,Wunderground v.1.15,2013-04-17 19:17:00,
2013-04-17 15:23:00,64.5,53.3,30.18,ENE,68,5.0,8.0,67,0.00,,,0.00,Wunderground v.1.15,2013-04-17 19:23:00,
2013-04-17 15:29:00,64.8,54.0,30.18,NNE,29,5.0,8.0,68,0.00,,,0.00,Wunderground v.1.15,2013-04-17 19:29:00,
2013-04-17 15:35:00,64.6,54.2,30.18,North,11,6.0,9.0,69,0.00,,,0.00,Wunderground v.1.15,2013-04-17 19:35:00,
2013-04-17 15:40:00,64.7,54.7,30.18,North,350,5.0,5.0,70,0.00,,,0.00,Wunderground v.1.15,2013-04-17 19:40:00,
2013-04-17 15:46:00,65.1,54.3,30.18,North,5,4.0,5.0,68,0.00,,,0.00,Wunderground v.1.15,2013-04-17 19:46:00,
2013-04-17 15:51:00,65.2,54.0,30.18,North,5,4.0,4.0,67,0.00,,,0.00,Wunderground v.1.15,2013-04-17 19:51:00,
2013-04-17 15:57:00,65.3,54.5,30.18,NNE,18,4.0,6.0,68,0.00,,,0.00,Wunderground v.1.15,2013-04-17 19:57:00,
2013-04-17 16:02:00,65.8,53.7,30.18,NE,35,3.0,4.0,65,0.00,,,0.00,Wunderground v.1.15,2013-04-17 20:02:00,
2013-04-17 16:08:00,65.5,54.2,30.18,ENE,71,5.0,12.0,67,0.00,,,0.00,Wunderground v.1.15,2013-04-17 20:08:00,
2013-04-17 16:13:00,65.3,53.6,30.18,ENE,78,8.0,10.0,66,0.00,,,0.00,Wunderground v.1.15,2013-04-17 20:13:00,
2013-04-17 16:19:00,65.4,54.6,30.18,NNE,33,6.0,10.0,68,0.00,,,0.00,Wunderground v.1.15,2013-04-17 20:19:00,
2013-04-17 16:24:00,65.7,54.0,30.18,ENE,61,5.0,7.0,66,0.00,,,0.00,Wunderground v.1.15,2013-04-17 20:24:00,
2013-04-17 16:30:00,65.7,53.6,30.18,ENE,65,6.0,6.0,65,0.00,,,0.00,Wunderground v.1.15,2013-04-17 20:30:00,
2013-04-17 16:37:00,65.9,52.5,30.18,NNE,26,5.0,6.0,62,0.00,,,0.00,Wunderground v.1.15,2013-04-17 20:37:00,
2013-04-17 16:43:00,66.4,52.1,30.18,NNE,30,3.0,6.0,60,0.00,,,0.00,Wunderground v.1.15,2013-04-17 20:43:00,
2013-04-17 16:49:00,66.4,52.1,30.17,East,80,4.0,7.0,60,0.00,,,0.00,Wunderground v.1.15,2013-04-17 20:49:00,
2013-04-17 16:55:00,66.5,51.7,30.17,NE,36,4.0,4.0,59,0.00,,,0.00,Wunderground v.1.15,2013-04-17 20:55:00,
2013-04-17 17:01:00,67.0,52.2,30.17,NE,55,2.0,2.0,59,0.00,,,0.00,Wunderground v.1.15,2013-04-17 21:01:00,
2013-04-17 17:07:00,66.7,50.0,30.17,ENE,65,4.0,8.0,55,0.00,,,0.00,Wunderground v.1.15,2013-04-17 21:07:00,
2013-04-17 17:12:00,66.4,49.7,30.17,ENE,76,6.0,8.0,55,0.00,,,0.00,Wunderground v.1.15,2013-04-17 21:12:00,
2013-04-17 17:18:00,66.5,49.8,30.17,NE,46,4.0,8.0,55,0.00,,,0.00,Wunderground v.1.15,2013-04-17 21:18:00,
2013-04-17 17:24:00,66.7,49.0,30.17,ENE,77,3.0,4.0,53,0.00,,,0.00,Wunderground v.1.15,2013-04-17 21:24:00,
2013-04-17 17:30:00,66.1,47.4,30.17,ENE,78,6.0,9.0,51,0.00,,,0.00,Wunderground v.1.15,2013-04-17 21:30:00,
2013-04-17 17:36:00,65.7,44.9,30.17,East,90,6.0,9.0,47,0.00,,,0.00,Wunderground v.1.15,2013-04-17 21:36:00,
2013-04-17 17:42:00,65.5,45.3,30.17,ENE,70,5.0,5.0,48,0.00,,,0.00,Wunderground v.1.15,2013-04-17 21:42:00,
2013-04-17 17:48:00,65.2,46.1,30.17,East,93,5.0,7.0,50,0.00,,,0.00,Wunderground v.1.15,2013-04-17 21:48:00,
2013-04-17 17:53:00,64.8,45.2,30.17,ENE,76,5.0,5.0,49,0.00,,,0.00,Wunderground v.1.15,2013-04-17 21:53:00,
2013-04-17 17:59:00,64.6,45.5,30.17,ENE,74,4.0,6.0,50,0.00,,,0.00,Wunderground v.1.15,2013-04-17 21:59:00,
2013-04-17 18:04:00,64.4,47.4,30.17,East,88,3.0,4.0,54,0.00,,,0.00,Wunderground v.1.15,2013-04-17 22:04:00,
2013-04-17 18:09:00,64.3,45.8,30.17,East,80,3.0,5.0,51,0.00,,,0.00,Wunderground v.1.15,2013-04-17 22:09:00,
2013-04-17 18:14:00,64.3,47.8,30.17,East,79,2.0,5.0,55,0.00,,,0.00,Wunderground v.1.15,2013-04-17 22:14:00,
2013-04-17 18:20:00,64.1,46.1,30.17,East,86,3.0,3.0,52,0.00,,,0.00,Wunderground v.1.15,2013-04-17 22:20:00,
2013-04-17 18:26:00,63.9,46.4,30.18,ENE,77,4.0,5.0,53,0.00,,,0.00,Wunderground v.1.15,2013-04-17 22:26:00,
2013-04-17 18:31:00,63.8,45.8,30.17,ENE,76,4.0,4.0,52,0.00,,,0.00,Wunderground v.1.15,2013-04-17 22:31:00,
2013-04-17 18:37:00,63.8,46.3,30.18,ENE,78,4.0,5.0,53,0.00,,,0.00,Wunderground v.1.15,2013-04-17 22:37:00,
2013-04-17 18:43:00,63.7,46.2,30.17,East,79,4.0,5.0,53,0.00,,,0.00,Wunderground v.1.15,2013-04-17 22:43:00,
2013-04-17 18:49:00,63.5,46.1,30.18,East,82,4.0,6.0,53,0.00,,,0.00,Wunderground v.1.15,2013-04-17 22:49:00,
2013-04-17 18:54:00,63.4,45.5,30.17,East,82,3.0,5.0,52,0.00,,,0.00,Wunderground v.1.15,2013-04-17 22:54:00,
2013-04-17 19:00:00,63.4,46.0,30.17,East,82,3.0,3.0,53,0.00,,,0.00,Wunderground v.1.15,2013-04-17 23:00:00,
2013-04-17 19:05:00,63.4,46.0,30.17,East,82,2.0,3.0,53,0.00,,,0.00,Wunderground v.1.15,2013-04-17 23:05:00,
2013-04-17 19:11:00,63.4,46.0,30.18,East,82,2.0,2.0,53,0.00,,,0.00,Wunderground v.1.15,2013-04-17 23:11:00,
2013-04-17 19:17:00,63.7,46.2,30.18,East,82,1.0,2.0,53,0.00,,,0.00,Wunderground v.1.15,2013-04-17 23:17:00,
2013-04-17 19:23:00,63.8,45.8,30.18,East,82,2.0,3.0,52,0.00,,,0.00,Wunderground v.1.15,2013-04-17 23:23:00,
2013-04-17 19:29:00,63.8,46.3,30.18,East,82,2.0,3.0,53,0.00,,,0.00,Wunderground v.1.15,2013-04-17 23:29:00,
2013-04-17 19:35:00,63.5,46.1,30.18,East,82,2.0,2.0,53,0.00,,,0.00,Wunderground v.1.15,2013-04-17 23:35:00,
2013-04-17 19:41:00,63.5,46.6,30.18,East,82,1.0,1.0,54,0.00,,,0.00,Wunderground v.1.15,2013-04-17 23:41:00,
2013-04-17 19:46:00,63.4,45.5,30.18,East,82,0.0,1.0,52,0.00,,,0.00,Wunderground v.1.15,2013-04-17 23:46:00,
2013-04-17 19:51:00,63.1,45.7,30.18,East,82,0.0,0.0,53,0.00,,,0.00,Wunderground v.1.15,2013-04-17 23:51:00,
2013-04-17 19:57:00,62.8,45.4,30.18,East,82,0.0,1.0,53,0.00,,,0.00,Wunderground v.1.15,2013-04-17 23:57:00,
2013-04-17 20:02:00,62.7,45.3,30.18,East,82,0.0,0.0,53,0.00,,,0.00,Wunderground v.1.15,2013-04-18 00:02:00,
2013-04-17 20:08:00,62.5,45.1,30.18,East,82,0.0,1.0,53,0.00,,,0.00,Wunderground v.1.15,2013-04-18 00:08:00,
2013-04-17 20:14:00,62.3,44.9,30.19,East,82,0.0,0.0,53,0.00,,,0.00,Wunderground v.1.15,2013-04-18 00:14:00,
2013-04-17 20:20:00,62.0,45.2,30.19,East,82,0.0,0.0,54,0.00,,,0.00,Wunderground v.1.15,2013-04-18 00:20:00,
2013-04-17 20:26:00,62.0,45.2,30.19,East,82,0.0,0.0,54,0.00,,,0.00,Wunderground v.1.15,2013-04-18 00:26:00,
2013-04-17 20:32:00,61.8,44.0,30.19,East,82,0.0,0.0,52,0.00,,,0.00,Wunderground v.1.15,2013-04-18 00:32:00,
2013-04-17 20:37:00,61.8,44.0,30.19,East,82,0.0,0.0,52,0.00,,,0.00,Wunderground v.1.15,2013-04-18 00:37:00,
2013-04-17 20:43:00,61.8,44.5,30.19,East,82,0.0,1.0,53,0.00,,,0.00,Wunderground v.1.15,2013-04-18 00:43:00,
2013-04-17 20:48:00,61.7,44.4,30.19,East,82,1.0,1.0,53,0.00,,,0.00,Wunderground v.1.15,2013-04-18 00:48:00,
2013-04-17 20:53:00,61.7,44.4,30.19,East,82,1.0,1.0,53,0.00,,,0.00,Wunderground v.1.15,2013-04-18 00:53:00,
2013-04-17 20:59:00,61.6,44.3,30.19,East,82,0.0,1.0,53,0.00,,,0.00,Wunderground v.1.15,2013-04-18 00:59:00,
2013-04-17 21:04:00,61.5,44.2,30.19,East,82,0.0,1.0,53,0.00,,,0.00,Wunderground v.1.15,2013-04-18 01:04:00,
2013-04-17 21:10:00,61.6,44.3,30.20,East,82,0.0,0.0,53,0.00,,,0.00,Wunderground v.1.15,2013-04-18 01:10:00,
2013-04-17 21:16:00,61.6,44.3,30.20,East,82,0.0,1.0,53,0.00,,,0.00,Wunderground v.1.15,2013-04-18 01:16:00,
2013-04-17 21:22:00,61.7,44.4,30.20,East,82,1.0,1.0,53,0.00,,,0.00,Wunderground v.1.15,2013-04-18 01:22:00,
2013-04-17 21:28:00,61.7,44.4,30.20,East,82,1.0,2.0,53,0.00,,,0.00,Wunderground v.1.15,2013-04-18 01:28:00,
2013-04-17 21:34:00,61.6,44.3,30.20,East,82,1.0,1.0,53,0.00,,,0.00,Wunderground v.1.15,2013-04-18 01:34:00,
2013-04-17 21:40:00,61.6,44.3,30.20,East,82,1.0,1.0,53,0.00,,,0.00,Wunderground v.1.15,2013-04-18 01:40:00,
2013-04-17 21:45:00,61.6,44.8,30.20,East,82,1.0,2.0,54,0.00,,,0.00,Wunderground v.1.15,2013-04-18 01:45:00,
2013-04-17 21:50:00,61.4,44.6,30.20,East,82,0.0,0.0,54,0.00,,,0.00,Wunderground v.1.15,2013-04-18 01:50:00,
2013-04-17 21:56:00,61.2,44.9,30.20,East,97,1.0,2.0,55,0.00,,,0.00,Wunderground v.1.15,2013-04-18 01:56:00,
2013-04-17 22:01:00,60.9,45.1,30.20,SSW,211,1.0,6.0,56,0.00,,,0.00,Wunderground v.1.15,2013-04-18 02:01:00,
2013-04-17 22:07:00,60.4,45.1,30.21,SSW,204,2.0,6.0,57,0.00,,,0.00,Wunderground v.1.15,2013-04-18 02:07:00,
2013-04-17 22:13:00,59.9,45.5,30.20,SSW,203,2.0,4.0,59,0.00,,,0.00,Wunderground v.1.15,2013-04-18 02:13:00,
2013-04-17 22:19:00,59.4,46.4,30.21,SSW,205,2.0,4.0,62,0.00,,,0.00,Wunderground v.1.15,2013-04-18 02:19:00,
2013-04-17 22:25:00,59.1,46.9,30.21,SW,215,3.0,7.0,64,0.00,,,0.00,Wunderground v.1.15,2013-04-18 02:25:00,
2013-04-17 22:31:00,58.8,48.6,30.21,SW,227,4.0,5.0,69,0.00,,,0.00,Wunderground v.1.15,2013-04-18 02:31:00,
2013-04-17 22:36:00,58.6,49.6,30.21,WSW,239,4.0,5.0,72,0.00,,,0.00,Wunderground v.1.15,2013-04-18 02:36:00,
2013-04-17 22:42:00,58.4,50.1,30.22,SW,236,5.0,6.0,74,0.00,,,0.00,Wunderground v.1.15,2013-04-18 02:42:00,
2013-04-17 22:47:00,58.3,50.8,30.22,SW,215,5.0,9.0,76,0.00,,,0.00,Wunderground v.1.15,2013-04-18 02:47:00,
2013-04-17 22:53:00,58.2,51.0,30.21,SW,235,5.0,7.0,77,0.00,,,0.00,Wunderground v.1.15,2013-04-18 02:53:00,
2013-04-17 22:58:00,58.0,50.8,30.22,SW,215,4.0,7.0,77,0.00,,,0.00,Wunderground v.1.15,2013-04-18 02:58:00,
2013-04-17 23:04:00,57.8,51.3,30.22,SW,235,5.0,7.0,79,0.00,,,0.00,Wunderground v.1.15,2013-04-18 03:04:00,
2013-04-17 23:10:00,57.6,51.8,30.22,SW,231,5.0,8.0,81,0.00,,,0.00,Wunderground v.1.15,2013-04-18 03:10:00,
2013-04-17 23:15:00,57.4,51.9,30.22,SW,221,5.0,8.0,82,0.00,,,0.00,Wunderground v.1.15,2013-04-18 03:15:00,
2013-04-17 23:20:00,57.3,52.2,30.22,SW,233,5.0,5.0,83,0.00,,,0.00,Wunderground v.1.15,2013-04-18 03:20:00,
2013-04-17 23:26:00,57.2,52.4,30.21,WSW,238,5.0,9.0,84,0.00,,,0.00,Wunderground v.1.15,2013-04-18 03:26:00,
2013-04-17 23:32:00,57.1,52.3,30.22,WSW,244,5.0,6.0,84,0.00,,,0.00,Wunderground v.1.15,2013-04-18 03:32:00,
2013-04-17 23:38:00,56.9,52.4,30.22,SW,232,4.0,6.0,85,0.00,,,0.00,Wunderground v.1.15,2013-04-18 03:38:00,
2013-04-17 23:44:00,56.9,52.4,30.22,SW,224,4.0,7.0,85,0.00,,,0.00,Wunderground v.1.15,2013-04-18 03:44:00,
2013-04-17 23:49:00,56.8,52.3,30.21,SW,230,4.0,7.0,85,0.00,,,0.00,Wunderground v.1.15,2013-04-18 03:49:00,
2013-04-17 23:54:00,56.8,52.7,30.21,SW,219,3.0,5.0,86,0.00,,,0.00,Wunderground v.1.15,2013-04-18 03:54:00,
2013-04-17 23:59:00,56.6,52.5,30.21,SSW,195,3.0,6.0,86,0.00,,,0.00,Wunderground v.1.15,2013-04-18 03:59:00,